sat.trackr.live / text

‹ back to catalog

QIANFAN-40

NORAD 62241 · 2024-232E

PAYLOAD ACTIVE UNKNOWN

§ Identity

Operator
Country
PRC
Launch date
2024-12-05
Launch site
TAISC
Launch vehicle
Mass (kg)
RCS (m²)

External: N2YO · Heavens-Above · Gunter

§ Orbital elements

Epoch: 2026-05-25T03:18:17.280000Z

Period
106.59 min
Inclination
89.0128°
Eccentricity
0.0015577
Mean motion
13.51009473 rev/d
Perigee alt
1,056.9 km
Apogee alt
1,080.1 km
Semi-major
7,446.7 km
B*
1.4458e-4
RAAN
24.4542°
Arg perigee
89.6861°
Mean anomaly
270.6075°
Rev number
12,165

§ Raw data

QIANFAN-401 62241U 24232E   26145.13770000  .00000106  00000+0  14458-3 0  99952 62241  89.0128  24.4542 0015577  89.6861 270.6075 13.51009473121654

JSON: /api/v1/satellites/62241 · /tle

For live sub-satellite position, see the globe view (requires WebGL).

§ Visibility from observer

Set your observer location to see the next 7 days of passes ≥ 10°. The values pass through the URL so the page stays shareable.

No JS? Fill the form by hand. The geolocation button needs JavaScript.